Preview of NWS' New Version of Forecast
This preview is not operational and should not be used for support decisions.

Regional Weather Roundup (RWR)

Issued by National Weather Service (NWS)

                            
000
ASUS43 KMKX 190410
RWRWI 

WISCONSIN REGIONAL WEATHER ROUNDUP
NATIONAL WEATHER SERVICE MILWAUKEE/SULLIVAN WI
1100 PM CDT THU APR 18 2019

NOTE: "FAIR" INDICATES FEW OR NO CLOUDS BELOW 12,000 FEET WITH NO
SIGNIFICANT WEATHER AND/OR OBSTRUCTIONS TO VISIBILITY.

WIZ001-002-006>008-014>016-023>028-190500-
NORTHWEST WISCONSIN
  
CITY           SKY/WX    TMP DP  RH WIND       PRES   REMARKS
SUPERIOR ARPT  FAIR      37  35  94 SW3       29.98S                  
ASHLAND        FAIR      34  34 100 W5        29.97F WCI  30          
HAYWARD        FAIR      31  30  96 CALM      29.97S                  
SIREN          FAIR      33  32  94 CALM      29.99R                  
CUMBERLAND     FAIR      36  34  93 CALM      29.98R                  
RICE LAKE      FAIR      36  29  77 CALM      29.98S                  
CHETEK         FOG       34  34 100 NW3       29.96S VSB 1            
LADYSMITH      FAIR      38  37  96 N6        29.97S WCI  33          
EAU CLAIRE     FAIR      42  35  76 N6        29.94S                  
MENOMONIE      FAIR      36  32  84 N5        29.96F WCI  32          
NEW RICHMOND   FAIR      38  34  86 CALM      29.99R                  
OSCEOLA        FAIR      38  37  92 CALM      30.02R                  
$$
 
WIZ003>005-009-010-017-018-190500-
NORTH CENTRAL WISCONSIN
  
CITY           SKY/WX    TMP DP  RH WIND       PRES   REMARKS
MANITOWISH WTR FOG       32  32 100 CALM      29.92F VSB 3/4          
ARBOR VITAE    FAIR      37  35  93 CALM      29.91S                  
WOODRUFF       FAIR      37  35  93 CALM      29.91S                  
RHINELANDER    FAIR      38  34  85 N6        29.88F WCI  33          
EAGLE RIVER    FAIR      35  35  97 N6        29.89F WCI  30          
LAND O LAKES   FAIR      35  34  95 N3        29.92F                  
PHILLIPS       FAIR      35  35 100 NW3       29.92F                  
TOMAHAWK       FAIR      35  33  93 NW3       29.91F                  
MEDFORD        FAIR      35  33  94 N8        29.91S WCI  29          
MERRILL        FAIR      37  36  94 N7        29.91S WCI  32          
$$
 
WIZ029-030-035-036-043>047-190500-
CENTRAL WISCONSIN
  
CITY           SKY/WX    TMP DP  RH WIND       PRES   REMARKS
WAUSAU         CLOUDY    39  35  86 N8        29.88S WCI  33          
MOSINEE        MOCLDY    37  36  93 N13       29.90R WCI  29          
MARSHFIELD     FAIR      39  36  89 N9        29.89S WCI  33          
STEVENS POINT  FAIR      37  35  94 N6        29.89R WCI  32          
WAUPACA        FAIR      43  36  78 N8        29.87S                  
WAUTOMA        FAIR      40  36  86 NW8       29.87S WCI  34          
WISC RAPIDS    FAIR      40  33  76 N7        29.89S                  
CAMP DOUGLAS   NOT AVBL                                               
$$
 
WIZ011>013-019>022-031-037>040-048>050-190500-
NORTHEAST WISCONSIN
  
CITY           SKY/WX    TMP DP  RH WIND       PRES   REMARKS
ANTIGO         MOCLDY    37  35  93 N12       29.88R WCI  29          
SHAWANO        CLOUDY    43  38  83 N9        29.86R                  
OCONTO         MOCLDY    41  36  84 N9        29.84S                  
STURGEON BAY   CLOUDY    40  37  89 N16       29.83R WCI  31          
GREEN BAY      CLOUDY    43  37  79 N15G23    29.84R                  
MANITOWOC      LGT RAIN  42  38  85 N16G26    29.81S                  
APPLETON       CLOUDY    39  34  81 N14       29.82S WCI  31          
CLINTONVILLE   CLOUDY    42  35  77 N8        29.86S                  
OSHKOSH        CLOUDY    41  36  82 N12       29.83S                  
$$
 
WIZ032>034-041-042-053>061-190500-
SOUTHWEST WISCONSIN
  
CITY           SKY/WX    TMP DP  RH WIND       PRES   REMARKS
LA CROSSE      FAIR      42  35  76 N9        29.92S                  
SPARTA         CLOUDY    42  37  84 CALM      29.93R                  
VIROQUA        CLOUDY    42  39  90 N10       29.90S                  
BOSCOBEL       FAIR      46  36  68 N10       29.90R                  
PRAIRIE DU CHI CLOUDY    46  35  65 N8        29.91S                  
PLATTEVILLE    FAIR      43  38  82 N15       29.86S                  
$$

WIZ056-057-062-063-064-067-068-190500-
SOUTH CENTRAL WISCONSIN
  
CITY           SKY/WX    TMP DP  RH WIND       PRES   REMARKS
REEDSBURG      FAIR      41  36  81 N10       29.88R                  
BARABOO/DELLS  FAIR      41  35  80 N7G16     29.87R                  
LONE ROCK      FAIR      44  35  70 N13G21    29.88S                  
MINERAL POINT  MOCLDY    43  37  81 N15G22    29.85S                  
MADISON        CLOUDY    42  35  76 N12       29.84S                  
MIDDLETON      CLOUDY    43  37  80 N14G20    29.85S                  
WATERTOWN      CLOUDY    42  40  93 N8        29.82S                  
MONROE         CLOUDY    43  35  73 MISG      29.82S                  
JANESVILLE     CLOUDY    45  36  70 N13       29.81S                  
$$
 
WIZ051-052-058>065-066-070>072-190500-
SOUTHEAST WISCONSIN
  
CITY           SKY/WX    TMP DP  RH WIND       PRES   REMARKS
MILWAUKEE      CLOUDY    45  36  70 N16G29    29.78F                  
WAUKESHA       CLOUDY    39  34  81 N12G18    29.81F WCI  32          
MILWAUKEE/TIMM CLOUDY    41  34  75 N14G21    29.80F                  
RACINE         CLOUDY    44  36  73 N15G25    29.80F                  
KENOSHA        CLOUDY    44  39  82 N9        29.79S                  
FOND DU LAC    CLOUDY    42  37  82 N14       29.82F                  
SHEBOYGAN      CLOUDY    43  36  76 N14G23    29.80S                  
WEST BEND      CLOUDY    41  36  81 N8G17     29.80F                  
JUNEAU         CLOUDY    41  37  84 N12       29.83S                  
$$

LSZ147-162-190500-
LAKE SUPERIOR
  
STATION/POSITION TIME  TEMP    WIND        PRES    WAVE
                       AIR SEA DIR/SP/G            HT/PER
                 (UTC) (F)     (DEG/KT/KT) (MB)    (FT/S)
$$
 
LMZ867-665-643>646-190500-
LAKE MICHIGAN
  
STATION/POSITION TIME  TEMP    WIND        PRES    WAVE
                       AIR SEA DIR/SP/G            HT/PER
                 (UTC) (F)     (DEG/KT/KT) (MB)    (FT/S)
NORTHPORT PIER   0340   37     330/  9/ 10 1009.5S
KEWAUNEE LAKESHO 0348   42     340/ 12/ 18 1008.6R
SHEBOYGAN LAKESH 0400   42     350/ 20/ 22 1009.3R
MILWAUKEE LAKESH 0350   44                   N/A
KENOSHA   LAKESH 0400   44     350/ 18/ 24 1008.5
$$

TC  - TEMPERATURE IN CELSIUS
VSB - VISIBILITY IN STATUTE MILES
WCI - WIND CHILL INDEX
HX  - HEAT INDEX